Powrót do katalogu

KUIPER-00433

AktywnyŁącznośćLEO
NORAD 68869·PAYLOAD·🇺🇸 United States

Wystrzelony Apr 28, 2026 z Cape Canaveral Space Force Station

Loading…

Następne Przeloty (najbliższe 24 godziny)

TLE

ŚwieżeSource: CelesTrak SupGP

Epoka: Sep 14, 2026, 21:31 UTC

1 68869C 26095F   26257.89665509  .00001746  00000+0  22858-3 0  2571
2 68869  51.8995 216.4636 0001012  50.6042  59.1250 14.79921143    19

Śledź KUIPER-00433 w czasie rzeczywistym z AllMySat

Download on the App Store